Weather in Ust-Anzas

Russia / Kemerovo Oblast     53°03′03″N   88°24′54″E
temp.,
°C
wind,
m/s
gust,
m/s
humid.,
%
clouds,
%
prec.,
mm/h
press.,
hPa
HPBL,
m
3 march, wed
wed301:00−8sw1197100 0.6 101521
04:00−9wsw0097100 0.7 101524
07:00−9nnw1197100 1.3 101521
10:00−7nw019497 0.1 1015176
13:00−4w128898 0.2 1016625
16:00−3wnw1290100 0.3 1017466
19:00−7nnw1297100 0.8 102024
22:00−9wsw1197100 0.5 102434
4 march, thu
thu401:00−12ssw1297100 0.6 102726
04:00−13s129896 0.1 102820
07:00−15se119797 0.1 102920
10:00−10se12904 0.0 1028182
13:00−4s23822 0.0 1025543
16:00−3ssw137781 0.0 1023848
19:00−7se118590 0.0 102421
22:00−10se118558 0.0 102421
5 march, fri
fri501:00−12se128345 0.0 102421
04:00−13se2284100 0.0 102320
07:00−14se128690 0.0 102220
10:00−9se228785 0.0 1018110
13:00−4s258493 0.0 1018269
16:00−2wsw61392100 0.6 10191372
19:00−4sw31293100 0.8 10221019
22:00−7s21196100 0.1 1024670
6 march, sat
sat601:00−6s21297100 0.7 1026986
04:00−7ssw1293100 0.2 102638
07:00−8s1294100 0.3 102621
10:00−6s1394100 0.0 1025164
13:00−1sw3971100 0.0 10221348
16:000wsw21080100 0.0 10191576
19:00−4s128799 0.0 101921
22:00−8se118893 0.0 101921
7 march, sun
sun701:00−9s118848 0.0 101921
04:00−10sse119158 0.0 102021
07:00−10sse229577 0.0 102127
10:00−7sse2295100 0.0 1020132
13:00−1ssw1293100 0.0 1019519
16:000s1188100 0.0 1018603
19:00−5se119393 0.0 101821
22:00−8se129039 0.0 101921